Location: Buffign�court
(47.8126°N, 6.0176°E)
Time: 01:04:06
(UTC+00:00)

CENTAUR R/B - Pass Details

Date: 16 June 2021
Orbit: 740 x 1447 km, 63.4° (Epoch: 17 July)

Event Time Altitude Azimuth Distance (km) Brightness Sun altitude
Rises 21:57:52 0° 259° (WSW) 3,542 5.6 -15.4°
Reaches altitude 10° 22:00:28 10° 268° (W) 2,698 5.1 -15.6°
Maximum altitude 22:06:15 35° 333° (NNW) 1,682 4.4 -16.0°
Drops below altitude 10° 22:13:03 10° 37° (NE) 3,177 5.6 -16.4°
Sets 22:16:23 0° 46° (NE) 4,255 6.2 -16.5°
